When you browse on this site, cookies collect data to enhance your experience and personalize the content and advertising you see.
Visit our Privacy Policy to learn more. By continuing to use the site, you agree to this use of cookies and data.
  • In Belgien
  • Länderverzeichnis
  • Für 7 Tage
  • Wassertemperatur
  • Satellitenkarten
  • Wetterkarte
  • Widgets
  • user-avatar
    Anmelden

    Stündliche Wetter Djelfa

    Heute, 20 Januar, Sonntag

    Zeit Temperatur Niederschläge Wind Luftdruck Luftfeuchtigkeit
    00:00 +1°C° 0 mm 5 m/S 661 mmHg 91%
    01:00 +1°C° 0 mm 5 m/S 661 mmHg 92%
    02:00 +1°C° 0 mm 5 m/S 660 mmHg 92%
    03:00 +1°C° 0 mm 5 m/S 660 mmHg 93%
    04:00 +1°C° 0 mm 4 m/S 660 mmHg 94%
    05:00 +1°C° 0 mm 4 m/S 660 mmHg 94%
    06:00 +1°C° 0 mm 4 m/S 660 mmHg 94%
    07:00 +2°C° 0.4 mm 5 m/S 660 mmHg 92%
    08:00 +3°C° 0.4 mm 6 m/S 660 mmHg 90%
    09:00 +4°C° 0.4 mm 7 m/S 660 mmHg 87%
    10:00 +4°C° 0.6 mm 7 m/S 660 mmHg 84%
    11:00 +5°C° 0.6 mm 8 m/S 659 mmHg 81%
    12:00 +6°C° 0.6 mm 8 m/S 659 mmHg 77%
    13:00 +6°C° 0.1 mm 9 m/S 659 mmHg 74%
    14:00 +6°C° 0.1 mm 9 m/S 659 mmHg 70%
    15:00 +7°C° 0.1 mm 9 m/S 658 mmHg 66%
    16:00 +6°C° 0.5 mm 9 m/S 658 mmHg 71%
    17:00 +5°C° 0.5 mm 9 m/S 658 mmHg 77%
    18:00 +5°C° 0.5 mm 8 m/S 658 mmHg 82%
    19:00 +3°C° 0.1 mm 9 m/S 658 mmHg 82%
    20:00 +3°C° 0.1 mm 9 m/S 658 mmHg 83%
    21:00 +2°C° 0.1 mm 9 m/S 658 mmHg 84%
    22:00 +2°C° 0.3 mm 9 m/S 658 mmHg 85%
    23:00 +2°C° 0.3 mm 9 m/S 658 mmHg 87%

    Morgen, 21 Januar, Montag

    Zeit Temperatur Niederschläge Wind Luftdruck Luftfeuchtigkeit
    00:00 +3°C° 0.3 mm 9 m/S 659 mmHg 89%
    01:00 +2°C° 0.1 mm 9 m/S 659 mmHg 90%
    02:00 +2°C° 0.1 mm 9 m/S 659 mmHg 92%
    03:00 +2°C° 0.1 mm 9 m/S 659 mmHg 93%
    04:00 +2°C° 0 mm 9 m/S 659 mmHg 91%
    05:00 +1°C° 0 mm 9 m/S 659 mmHg 89%
    06:00 0°C° 0 mm 9 m/S 659 mmHg 86%
    07:00 +1°C° 0 mm 10 m/S 660 mmHg 82%
    08:00 +1°C° 0 mm 10 m/S 660 mmHg 78%
    09:00 +1°C° 0 mm 11 m/S 661 mmHg 74%
    10:00 +2°C° 0 mm 11 m/S 661 mmHg 69%
    11:00 +3°C° 0 mm 10 m/S 661 mmHg 63%
    12:00 +5°C° 0 mm 10 m/S 661 mmHg 58%
    13:00 +5°C° 0 mm 10 m/S 661 mmHg 57%
    14:00 +5°C° 0 mm 10 m/S 661 mmHg 57%
    15:00 +5°C° 0 mm 9 m/S 661 mmHg 56%
    16:00 +4°C° 0.1 mm 8 m/S 661 mmHg 62%
    17:00 +2°C° 0.1 mm 8 m/S 661 mmHg 68%
    18:00 +2°C° 0.1 mm 7 m/S 661 mmHg 73%
    19:00 +2°C° 0.1 mm 7 m/S 662 mmHg 77%
    20:00 +1°C° 0.1 mm 6 m/S 662 mmHg 80%
    21:00 +1°C° 0.1 mm 6 m/S 662 mmHg 84%
    22:00 +1°C° 0 mm 6 m/S 662 mmHg 87%
    23:00 -1°C° 0 mm 6 m/S 662 mmHg 90%

    übermorgen, 22 Januar, Dienstag

    Zeit Temperatur Niederschläge Wind Luftdruck Luftfeuchtigkeit
    00:00 0°C° 0 mm 5 m/S 662 mmHg 92%
    01:00 -1°C° 0 mm 5 m/S 662 mmHg 93%
    02:00 -2°C° 0 mm 6 m/S 662 mmHg 94%
    03:00 -2°C° 0 mm 6 m/S 662 mmHg 95%
    04:00 -2°C° 0 mm 6 m/S 662 mmHg 94%
    05:00 -2°C° 0 mm 6 m/S 662 mmHg 92%
    06:00 -2°C° 0 mm 6 m/S 662 mmHg 91%
    07:00 -2°C° 0 mm 7 m/S 662 mmHg 89%
    08:00 -1°C° 0 mm 7 m/S 662 mmHg 86%
    09:00 -1°C° 0 mm 8 m/S 662 mmHg 84%
    10:00 0°C° 0 mm 8 m/S 662 mmHg 75%
    11:00 +1°C° 0 mm 9 m/S 662 mmHg 67%
    12:00 +2°C° 0 mm 9 m/S 662 mmHg 58%
    13:00 +2°C° 0 mm 9 m/S 661 mmHg 57%
    14:00 +1°C° 0 mm 10 m/S 660 mmHg 55%
    15:00 +1°C° 0 mm 10 m/S 660 mmHg 53%
    16:00 +1°C° 0 mm 9 m/S 659 mmHg 57%
    17:00 0°C° 0 mm 8 m/S 659 mmHg 62%
    18:00 -1°C° 0 mm 7 m/S 659 mmHg 66%
    19:00 -1°C° 0 mm 7 m/S 659 mmHg 71%
    20:00 -1°C° 0 mm 7 m/S 659 mmHg 77%
    21:00 -1°C° 0 mm 7 m/S 659 mmHg 82%
    22:00 -1°C° 0.1 mm 8 m/S 658 mmHg 83%
    23:00 -1°C° 0.1 mm 9 m/S 658 mmHg 84%

    23 Januar, Mittwoch

    Zeit Temperatur Niederschläge Wind Luftdruck Luftfeuchtigkeit
    00:00 0°C° 0.1 mm 9 m/S 657 mmHg 85%
    01:00 0°C° 0.2 mm 10 m/S 656 mmHg 85%
    02:00 -1°C° 0.2 mm 11 m/S 656 mmHg 85%
    03:00 -1°C° 0.2 mm 12 m/S 655 mmHg 86%
    04:00 -1°C° 0.5 mm 12 m/S 655 mmHg 86%
    05:00 -1°C° 0.5 mm 12 m/S 654 mmHg 87%
    06:00 -2°C° 0.5 mm 13 m/S 654 mmHg 87%
    07:00 -2°C° 0.2 mm 13 m/S 654 mmHg 82%
    08:00 -2°C° 0.2 mm 14 m/S 655 mmHg 77%
    09:00 -3°C° 0.2 mm 15 m/S 655 mmHg 72%
    10:00 -3°C° 0.1 mm 15 m/S 655 mmHg 69%
    11:00 -2°C° 0.1 mm 16 m/S 655 mmHg 65%
    12:00 -2°C° 0.1 mm 16 m/S 655 mmHg 61%
    13:00 0°C° 0 mm 16 m/S 654 mmHg 59%
    14:00 0°C° 0 mm 16 m/S 654 mmHg 57%
    15:00 +1°C° 0 mm 16 m/S 653 mmHg 55%
    16:00 0°C° 0.1 mm 16 m/S 653 mmHg 60%
    17:00 0°C° 0.1 mm 17 m/S 652 mmHg 65%
    18:00 -1°C° 0.1 mm 18 m/S 652 mmHg 70%
    19:00 -1°C° 0.4 mm 19 m/S 652 mmHg 73%
    20:00 -1°C° 0.4 mm 20 m/S 652 mmHg 76%
    21:00 -1°C° 0.4 mm 21 m/S 652 mmHg 79%
    22:00 -1°C° 1 mm 20 m/S 652 mmHg 81%
    23:00 -1°C° 1 mm 19 m/S 652 mmHg 83%

    24 Januar, Donnerstag

    Zeit Temperatur Niederschläge Wind Luftdruck Luftfeuchtigkeit
    00:00 -1°C° 1 mm 18 m/S 652 mmHg 85%
    01:00 -2°C° 2.9 mm 16 m/S 652 mmHg 88%
    02:00 -1°C° 2.9 mm 14 m/S 652 mmHg 91%
    03:00 -2°C° 2.9 mm 12 m/S 651 mmHg 95%
    04:00 -2°C° 1.8 mm 12 m/S 651 mmHg 94%
    05:00 -3°C° 1.8 mm 11 m/S 651 mmHg 94%
    06:00 -3°C° 1.8 mm 11 m/S 651 mmHg 94%
    07:00 -3°C° 0.7 mm 12 m/S 652 mmHg 91%
    08:00 -5°C° 0.7 mm 13 m/S 653 mmHg 89%
    09:00 -5°C° 0.7 mm 14 m/S 653 mmHg 87%
    10:00 -5°C° 0.1 mm 14 m/S 654 mmHg 82%
    11:00 -5°C° 0.1 mm 14 m/S 654 mmHg 77%
    12:00 -4°C° 0.1 mm 14 m/S 655 mmHg 72%
    13:00 -4°C° 0 mm 13 m/S 655 mmHg 71%
    14:00 -3°C° 0 mm 11 m/S 655 mmHg 70%
    15:00 -3°C° 0 mm 10 m/S 655 mmHg 69%
    16:00 -4°C° 0 mm 10 m/S 656 mmHg 71%
    17:00 -5°C° 0 mm 9 m/S 656 mmHg 73%
    18:00 -5°C° 0 mm 9 m/S 656 mmHg 75%
    19:00 -6°C° 0 mm 8 m/S 657 mmHg 78%
    20:00 -6°C° 0 mm 8 m/S 657 mmHg 81%
    21:00 -7°C° 0 mm 7 m/S 658 mmHg 84%
    22:00 -7°C° 0 mm 7 m/S 658 mmHg 83%
    23:00 -7°C° 0 mm 7 m/S 658 mmHg 83%

    25 Januar, Freitag

    Zeit Temperatur Niederschläge Wind Luftdruck Luftfeuchtigkeit
    00:00 -7°C° 0 mm 7 m/S 658 mmHg 82%
    01:00 -7°C° 0 mm 7 m/S 657 mmHg 81%
    02:00 -7°C° 0 mm 7 m/S 657 mmHg 79%
    03:00 -7°C° 0 mm 7 m/S 657 mmHg 78%
    04:00 -6°C° 0 mm 7 m/S 657 mmHg 80%
    05:00 -6°C° 0 mm 7 m/S 657 mmHg 82%
    06:00 -6°C° 0 mm 7 m/S 657 mmHg 84%
    07:00 -4°C° 0.3 mm 6 m/S 657 mmHg 88%
    08:00 -3°C° 0.3 mm 6 m/S 658 mmHg 92%
    09:00 -2°C° 0.3 mm 6 m/S 658 mmHg 96%
    10:00 -1°C° 1.2 mm 7 m/S 658 mmHg 96%
    11:00 0°C° 1.2 mm 8 m/S 658 mmHg 97%
    12:00 0°C° 1.2 mm 9 m/S 657 mmHg 97%
    13:00 0°C° 0.6 mm 9 m/S 658 mmHg 97%
    14:00 0°C° 0.6 mm 10 m/S 658 mmHg 97%
    15:00 0°C° 0.6 mm 10 m/S 658 mmHg 97%
    16:00 0°C° 0.2 mm 10 m/S 658 mmHg 97%
    17:00 0°C° 0.2 mm 9 m/S 659 mmHg 98%
    18:00 -1°C° 0.2 mm 9 m/S 660 mmHg 98%
    19:00 -3°C° 0 mm 9 m/S 660 mmHg 96%
    20:00 -4°C° 0 mm 8 m/S 661 mmHg 93%
    21:00 -5°C° 0 mm 8 m/S 661 mmHg 91%
    22:00 -4°C° 0 mm 7 m/S 661 mmHg 90%
    23:00 -6°C° 0 mm 7 m/S 662 mmHg 89%
    Mehr zeigen